Zurück zum Katalog

TEAMSAT

AktivWissenschaftHEO
NORAD 25025·PAYLOAD·🇪🇺 EU

Gestartet Oct 30, 1997 von Guiana Space Centre

Loading…

Nächste Überflüge (nächste 24 Stunden)

TLE

AktuellSource: Space-Track

Epoche: Sep 14, 2026, 11:58 UTC

1 25025U 97066C   26257.49888765 -.00000151  00000-0 -34349-3 0  9994
2 25025   7.8461 326.5357 6520908 178.4091 334.8904  3.08030265137956

Verfolge TEAMSAT in Echtzeit mit AllMySat

Download on the App Store